Regional Weather Roundup
Issued by NWS

Home | Current Version | Previous Version | Graphics & Text | Print | Product List | Glossary On
Versions: 1 2 3 4 5 6 7 8 9 10 11 12 13 14 15 16 17 18 19 20 21 22 23 24 25 26 27 28 29 30 31 32 33 34 35 36 37 38 39 40 41 42 43 44 45 46 47 48 49 50
040
ASUS44 KLIX 251310
RWRLA
LOUISIANA WEATHER ROUNDUP
NATIONAL WEATHER SERVICE NEW ORLEANS LA
700 AM CST SUN JAN 25 2015

NOTE: "FAIR" INDICATES FEW OR NO CLOUDS BELOW 12,000 FEET WITH NO
      SIGNIFICANT WEATHER AND/OR OBSTRUCTIONS TO VISIBILITY.
      SKY/WX - SKY CONDITION AND SIGNIFICANT WEATHER.
      TMP - AIR TEMPERATURE.    DP   - DEWPOINT TEMPERATURE.
      RH  - RELATIVE HUMIDITY.  PRES - PRESSURE.
      HX  - HEAT INDEX.         WCI  - WIND CHILL INDEX.

*  THESE STATIONS ARE NOT NWS OR FAA STATIONS AND ARE NOT UNDER
   NWS QUALITY CONTROL.

LAZ040-048-061>063-065-066-069-251400-
SOUTHEAST LOUISIANA

CITY           SKY/WX    TMP DP  RH WIND       PRES   REMARKS
N.O. AUDUBON     N/A     43  42  99 MISG        N/A
N.O. INTL ARPT PTCLDY    44  41  89 S6        30.05F
N.O. LAKEFRONT CLEAR     48  43  82 SW12      30.06S
N.O. DOWNTOWN* FAIR      45  39  81 S5        30.06F
SLIDELL        FOG       35  33  92 S3        30.04S VSB 3/4
BATON ROUGE    CLEAR     42  40  92 SW5       30.02S
BOOTHVILLE     CLEAR     49  46  90 W5        30.08S
BELLE CHASSE   PTCLDY    37  35  92 SW5       30.06S FOG     WCI  33
BOGALUSA*        N/A     32  30  93 CALM      30.03F
GALLIANO*        N/A     39  39 100 MISG      30.07S FOG
NEW ROADS*     FAIR      40  40  98 S7        30.02S FOG
GONZALES*      FAIR      41  41  99 CALM      30.04F FOG
HAMMOND*       CLEAR     37  36  93 CALM      30.04F FOG
HOUMA*         CLEAR     37  37 100 SW7       30.06F WCI  32
PORT FOURCHON* SUNNY     50  48  93 CALM      30.11R

$$

LAZ041-044-053-054-251400-
SOUTHWEST LOUISIANA

CITY           SKY/WX    TMP DP  RH WIND       PRES   REMARKS
LAKE CHARLES   CLEAR     41  40  96 SW3       30.03R
LAFAYETTE      FOG       43  43 100 S3        30.04R VSB 1/4
PATTERSON      CLOUDY    36  34  93 S3        30.06F VSB 1/4
SALT POINT       N/A     46  45  96 CALM      30.05S
NEW IBERIA     FOG       42  41  96 SW6       30.05R VSB 3/4
CHENAULT AIRPK CLEAR     43  43 100 S3        30.04R

$$

LAZ027-028-251400-
CENTRAL LOUISIANA

CITY           SKY/WX    TMP DP  RH WIND       PRES   REMARKS
FORT POLK      CLEAR     42  37  85 SW5       29.97S
ALEXANDRIA INT CLEAR     40  36  86 CALM      29.96F
ALEXANDRIA     CLEAR     32  30  92 CALM      29.97F

$$

LAZ001-002-251400-
NORTHWEST LOUISIANA

CITY           SKY/WX    TMP DP  RH WIND       PRES   REMARKS
SHREVEPORT     PTCLDY    40  34  79 SW6       29.91R
BARKSDALE AFB  CLEAR     34  32  93 S6        29.91S WCI  28
DTN SHREVEPORT CLEAR     41  33  73 SW10      29.91S

$$

LAZ014-016-251400-
NORTHEAST LOUISIANA

CITY           SKY/WX    TMP DP  RH WIND       PRES   REMARKS
MONROE         CLEAR     38  35  89 S7        29.94S WCI  33
TALLULAH       CLEAR     42  37  82 S5        29.95F

$$




USA.gov is the U.S. government's official web portal to all federal, state and local government web resources and services.